Location: Hylvaty SDH
(49.9612°N, 16.4057°E)
Time: 18:03:02
(UTC+02:00)

Transit 4A - Pass Details

Date: 14 August 2020
Orbit: 862 x 982 km, 66.8° (Epoch: 28 September)

Event Time Altitude Azimuth Distance (km) Brightness Sun altitude
Rises 09:49:56 0° 217° (SW) 3,494 10.8 37.6°
Reaches altitude 10° 09:52:24 10° 219° (SW) 2,574 10.2 38.0°
Maximum altitude 09:58:24 82° 307° (NW) 938 8.5 38.9°
Drops below altitude 10° 10:04:38 10° 36° (NE) 2,673 10.5 39.7°
Sets 10:07:14 0° 37° (NE) 3,639 11.1 40.1°
